Location: Holyhead Bay
(53.3667°N, 4.6667°W)
Time: 05:55:38
(UTC+00:00)

SL-16 R/B - Pass Details

Date: 24 November 2020
Orbit: 841 x 849 km, 71.0° (Epoch: 23 January)

Event Time Altitude Azimuth Distance (km) Brightness Sun altitude
Rises 18:30:08 0° 189° (S) 3,386 5.6 -20.1°
Reaches altitude 10° 18:32:38 10° 183° (S) 2,455 4.7 -20.5°
Maximum altitude 18:37:59 47° 112° (ESE) 1,109 2.4 -21.3°
Enters shadow 18:38:42 44° 90° (E) 1,147 2.4 -21.4°
